www.pogodaiklimat.ru

Погода и климат >> Архив погоды >> Индия >> Gopalpur


ПОГОДА в Gopalpur

  • Прогноз погоды в Gopalpur
  • Монитор погоды в Gopalpur
  • Климат города

АРХИВ ПОГОДЫ в Gopalpur

Время (UTC), дата Ветер
(напр.,м/с)
 
Видим.   Явления Облачность Т
(С)
Тd
(С)
f
(%)
Тe
(С)
Тes
(С)
Комфортность P
(гПа)
Po
(гПа)
Тmin
(С)
Tmax
(С)
R
(мм)
R24
(мм)
S
(см)
21 10.07 Ю 2 2000 м мгла 6/3 600 м
[Sc Ac trans Ci fib]
+28.0 +27.2 95 +44 +44 опасность
перегрева
998.4 998.0
00 11.07 Ю 3 2000 м мгла 8/3 600 м
[Sc Ac trans Ci fib]
+28.0 +26.9 94 +44 +44 опасность
перегрева
998.0 998.0
03 11.07 Ю 3 2000 м мгла 9/5 600 м
[Sc Ac trans Ci fib]
+28.8 +26.9 89 +45 +48 опасность
перегрева
999.4 999.0 +27.0
06 11.07 Ю 3 4000 м мгла 9/4 600 м
[Sc Ac trans Ci fib]
+30.0 +27.5 86 +48 +55 опасность
перегрева
999.0 999.0
09 11.07 Ю 3 4000 м мгла 9/4 540 м
[Sc diur, vesp Ac trans Ci fib]
+30.2 +27.7 87 +49 +53 опасность
перегрева
996.9 997.0
12 11.07 ЮЗ 4 4000 м мгла 10/5 540 м
[Sc diur, vesp As op]
+29.2 +27.5 91 +47 +47 опасность
перегрева
996.3 996.0 +31.1
15 11.07 Ю 3 4000 м мгла 10/6 540 м
[Sc diur, vesp As trans]
+28.6 +26.6 89 +44 +44 опасность
перегрева
997.6 998.0
18 11.07 ЮЗ 2 2000 м мгла 10/5 600 м
[Sc As trans]
+28.0 +26.3 91 +43 +43 опасность
перегрева
998.6 999.0
21 11.07 ЮЗ 2 2000 м мгла 10/5 600 м
[Sc As trans]
+27.8 +26.4 92 +42 +42 опасность
перегрева
997.7 998.0
00 12.07 штиль 0 2000 м мгла 10/5 540 м
[Sc As trans]
+27.6 +26.2 92 +42 +42 опасность
перегрева
996.5 997.0
03 12.07 Ю 2 2000 м мгла 6/3 600 м
[Sc Ac trans Ci fib]
+29.0 +27.6 92 +47 +53 опасность
перегрева
997.9 998.0 +26.8
06 12.07 ЮЗ 4 2000 м мгла 9/4 540 м
[Sc diur, vesp Ac trans Ci fib]
+29.4 +27.5 90 +48 +53 опасность
перегрева
997.8 998.0
09 12.07 Ю 3 2000 м мгла 9/4 540 м
[Sc diur, vesp Ac trans Ci fib]
+29.8 +27.3 86 +47 +51 опасность
перегрева
995.4 995.0
12 12.07 Ю 3 2000 м мгла 9/4 540 м
[Sc diur, vesp Ac trans Ci fib]
+29.4 +27.5 90 +48 +48 опасность
перегрева
995.2 995.0 +31.0
15 12.07 Ю 3 4000 м мгла 6/3 540 м
[Sc Ac trans Ci fib]
+29.0 +27.9 94 +48 +48 опасность
перегрева
996.8 997.0
18 12.07 штиль 0 2000 м мгла 8/4 540 м
[Sc Ac trans Ci fib]
+28.8 +27.7 94 +47 +47 опасность
перегрева
997.6 998.0
21 12.07 штиль 0 2000 м мгла 8/4 540 м
[Sc Ac trans Ci fib]
+28.4 +27.3 94 +45 +45 опасность
перегрева
996.6 997.0
00 13.07 штиль 0 2000 м мгла 6/1 600 м
[Sc Ac trans Ci fib]
+28.4 +27.3 94 +45 +45 опасность
перегрева
996.0 996.0
03 13.07 Ю 2 4000 м мгла 6/4 540 м
[Sc diur, vesp Ac trans Ci fib]
+30.0 +27.8 88 +49 +55 опасность
перегрева
997.3 997.0 +27.5
06 13.07 Ю 2 4000 м 8/4 540 м
[Sc diur, vesp Ac trans Ci fib]
+30.4 +27.9 87 +50 +60 опасность
перегрева
997.1 997.0
09 13.07 Ю 2 4000 м 9/5 540 м
[Cb calv Ac trans Ci fib]
+30.6 +27.6 84 +49 +54 опасность
перегрева
995.8 996.0
12 13.07 ЮЗ 2 2000 м гроза, ливневой дождь 10/5 540 м
[Cb cap As op]
+27.0 +26.4 97 +41 +41 опасность
перегрева
996.1 996.0 +31.8 16
15 13.07 штиль 0 2000 м мгла {гроза, дождь} 8/3 600 м
[Sc Ac trans Ci fib]
+27.0 +26.4 97 +41 +41 опасность
перегрева
997.3 997.0 16
18 13.07 штиль 0 2000 м мгла {гроза, дождь} 9/4 600 м
[Sc Ac trans Ci fib]
+27.0 +25.9 94 +40 +40 очень
душно
997.9 998.0 16
21 13.07 штиль 0 2000 м мгла 9/4 600 м
[Sc Ac trans Ci fib]
+26.8 +25.7 94 +40 +40 очень
душно
996.9 997.0 16
00 14.07 штиль 0 2000 м мгла 8/3 600 м
[Sc Ac trans Ci fib]
+26.8 +25.7 94 +40 +40 очень
душно
996.0 996.0 16
03 14.07 штиль 0 2000 м мгла 10/5 540 м
[Sc As trans]
+27.8 +26.7 94 +43 +46 опасность
перегрева
997.0 997.0 +25.7 16
06 14.07 Ю 2 4000 м мгла 10/5 540 м
[Sc diur, vesp As trans]
+29.6 +27.7 90 +48 +53 опасность
перегрева
996.3 996.0
09 14.07 Ю 2 1000 м гроза, ливневой дождь 10/6 500 м
[Cb cap As op]
+27.8 +26.7 94 +43 +44 опасность
перегрева
994.8 995.0 14
12 14.07 ЮЗ 1 1000 м гроза, ливневой дождь 10/6 500 м
[Cb cap As op]
+26.2 +25.3 95 +38 +38 очень
душно
994.3 994.0 +30.0 24
15 14.07 ЮЗ 1 2000 м мгла {гроза, дождь} 10/6 500 м
[Sc As op]
+26.8 +26.2 97 +41 +41 опасность
перегрева
995.4 995.0 24
18 14.07 ЮЗ 2 1000 м слабый дождь {гроза} 10/6 500 м
[Sc As op]
+26.6 +26.0 97 +40 +40 очень
душно
996.0 996.0 27
21 14.07 ЮЗ 3 1000 м слабый дождь 10/6 500 м
[Sc As op]
+26.2 +25.9 98 +39 +39 очень
душно
994.4 994.0 37
00 15.07 ЮЗ 3 1000 м гроза, ливневой дождь 10/6 500 м
[Cb cap As op]
+25.6 +25.3 98 +37 +37 очень
душно
993.3 993.0 51
03 15.07 штиль 0 1000 м гроза, ливневой дождь 10/6 500 м
[Cb cap As op]
+25.6 +25.0 96 +36 +38 очень
душно
994.8 995.0 +24.8 66
06 15.07 штиль 0 1000 м гроза, ливневой дождь 10/6 500 м
[Cb cap As op]
+26.0 +25.4 97 +38 +40 очень
душно
994.8 995.0 9
09 15.07 Ю 3 4000 м мгла {гроза, дождь} 9/5 540 м
[Sc diur, vesp Ac trans Ci fib]
+28.0 +26.6 92 +43 +47 опасность
перегрева
992.5 993.0 10
12 15.07 Ю 3 2000 м мгла 10/5 540 м
[Sc diur, vesp As trans]
+27.8 +26.4 92 +42 +43 опасность
перегрева
992.2 992.0 +29.2 10
15 15.07 штиль 0 2000 м слабый дождь 10/5 540 м
[Sc As op]
+27.8 +26.4 92 +42 +42 опасность
перегрева
993.8 994.0 11
18 15.07 штиль 0 2000 м мгла 10/5 540 м
[Sc As op]
+27.8 +26.4 92 +42 +42 опасность
перегрева
994.9 995.0 11
21 15.07 штиль 0 2000 м слабый дождь 10/5 500 м
[Sc As op]
+26.2 +25.9 98 +39 +39 очень
душно
995.4 995.0 17
00 16.07 штиль 0 2000 м слабый дождь 10/5 540 м
[Sc As op]
+26.2 +25.9 98 +39 +39 очень
душно
994.8 995.0 24
03 16.07 ЮЗ 2 2000 м слабый дождь 10/5 540 м
[Sc As op]
+25.6 +25.3 98 +37 +38 очень
душно
996.4 996.0 +24.8 25
06 16.07 ЮЗ 2 2000 м слабый дождь 10/5 540 м
[Sc As op]
+26.4 +25.8 97 +39 +41 очень
душно
996.6 997.0 6
09 16.07 Ю 3 2000 м в посл. час морось {дождь} 10/4 540 м
[Sc As op]
+28.0 +26.6 92 +43 +45 опасность
перегрева
994.9 995.0 7
12 16.07 Ю 6 2000 м мгла {дождь, морось} 9/5 540 м
[Sc diur, vesp Ac trans Cs]
+28.6 +27.8 95 +47 +47 опасность
перегрева
994.7 995.0 +29.6 7
15 16.07 ЮЗ 4 2000 м мгла 9/4 540 м
[Sc Ac trans Ci fib]
+28.2 +26.8 92 +44 +44 опасность
перегрева
996.5 997.0 7
18 16.07 ЮЗ 5 2000 м мгла 9/4 540 м
[Sc Ac trans Ci fib]
+27.8 +26.4 92 +42 +42 опасность
перегрева
997.6 998.0 7
21 16.07 ЮЗ 4 2000 м мгла 9/3 540 м
[Sc Ac trans Ci fib]
+27.6 +26.2 92 +42 +42 опасность
перегрева
997.1 997.0 7
00 17.07 ЮЗ 4 2000 м мгла {дождь} 9/4 500 м
[Sc Ac trans Ci fib]
+26.6 +25.2 92 +38 +38 очень
душно
996.7 997.0 7
03 17.07 Ю 3 2000 м мгла 6/3 540 м
[Sc Ac trans Ci fib]
+28.2 +26.5 91 +44 +48 опасность
перегрева
997.6 998.0 +25.4 7
06 17.07 Ю 5 4000 м 8/4 540 м
[Sc diur, vesp Ac trans Ci fib]
+30.2 +28.0 88 +50 +54 опасность
перегрева
997.5 998.0
09 17.07 Ю 4 4000 м 8/4 540 м
[Sc diur, vesp Ac trans Ci fib]
+30.0 +27.2 85 +48 +51 опасность
перегрева
996.3 996.0
12 17.07 Ю 3 4000 м в посл. час дождь 8/5 540 м
[Sc diur, vesp Ac trans Ci fib]
+29.0 +27.6 92 +47 +47 опасность
перегрева
995.7 996.0 +31.8 3
15 17.07 ЮЗ 2 2000 м мгла 6/3 600 м
[Sc Ac trans Ci fib]
+29.0 +27.6 92 +47 +47 опасность
перегрева
997.5 998.0 3
18 17.07 ЮЗ 1 2000 м мгла 6/3 600 м
[Sc Ac trans Ci fib]
+29.0 +27.6 92 +47 +47 опасность
перегрева
998.7 999.0 3

 

Местоположение метеостанции Gopalpur (Orissa, Индия): широта 19.27 долгота 84.88 высота над уровнем моря 17 м.

В архиве по умолчанию представлена погода в Gopalpur за последнюю неделю. Архивные данные за месяц целиком и за предыдущие месяцы, начиная с января 2011 года, Вы можете получить, выбрав интересующий диапазон дат из раскрывающегося списка и нажав кнопку "Ввод!".


*Определитесь, кто Вы:
робот инопланетянин человек

Внимание! Время в таблицах - всемирное. Для получения местного времени необходимо прибавить поправку, которая в Gopalpur равна 5.5 ч.

Смотрите также архив погоды в соседних городах и на ближайших метеорологических станциях:

Погода в Puri (Orissa, Индия) (115 км)
Погода в Kalingapatam (Andhra Pradesh, Индия) (131 км)
Погода в Bhubaneswar (Orissa, Индия) (148 км)
Погода в Phulbani (Orissa, Индия) (149 км)
Погода в Cuttack (Orissa, Индия) (173 км)
Погода в Angul (Orissa, Индия) (175 км)
Погода в Bhawanipatna (Orissa, Индия) (192 км)
Погода в Titlagarh (Orissa, Индия) (201 км)
Погода в Paradip Port (Orissa, Индия) (220 км)
Погода в Koraput (Orissa, Индия) (233 км)

Пояснения к столбцам:

Ветер - указаны скорость ветра в м/с - средняя за 10 мин, порывы в срок и между сроками (в фигурных скобках) и направление, откуда дует ветер: С - северный, СВ - северо-восточный, В - восточный, ЮВ - юго-восточный, Ю - южный, ЮЗ - юго-западный, З - западный, СЗ - северо-западный.
Видимость - горизонтальная дальность видимости в метрах или километрах. При видимости от 1 до 10 км при отсутствии осадков обычно наблюдается дымка, при ухудшении видимости до 1 км и менее - туман. В сухую погоду видимость может ухудшаться дымом, пылью или мглою.
Явления - указаны атмосферные явления, наблюдавшиеся в срок или в последний час перед сроком; фигурными скобками обозначены явления, наблюдавшиеся между сроками (за 1-3 часа до срока); квадратными скобками обозначены град или гололедные отложения с указанием их диаметра в мм.
Облачность - указаны через наклонную черту общая и нижняя облачность в баллах и высота нижней границы облаков в метрах; квадратными скобками обозначены формы облаков: Ci - перистые, Cs - перисто-слоистые, Cc - перисто-кучевые, Ac - высококучевые, As - высокослоистые, Sc - слоисто-кучевые, Ns - слоисто-дождевые, Cu - кучевые, Cb - кучево-дождевые. Подробнее классификацию облаков см. в Атласе облаков (PDF).
T - Температура воздуха - температура, измеренная на высоте 2 м над землей.
Td - Температура точки росы - температура, при понижении до которой содержащийся в воздухе водяной пар достигнет насыщения.
f - Относительная влажность воздуха - влажноcть воздуха, измеренная на высоте 2 м над землей.
Te - Эффективная температура - температура, которую ощущает одетый по сезону человек в тени. Характеристика душности погоды. При расчете учитывается влияние влажности воздуха и скорости ветра на теплоощущения человека.
Tes - Эффективная температура на солнце - температура, которую ощущает человек, с поправкой на солнечный нагрев. Характеристика знойности погоды. Зависит от высоты солнца над горизонтом, облачности и скорости ветра. Ночью, в пасмурную погоду, а также при ветре 12 м/с и более поправка равна нулю.
P - Атмосферное давление - приведенное к уровню моря атмосферное давление.
Po - Атмосферное давление - измеренное на уровне метеостанции атмосферное давление.
Tmin - Минимальная температура - минимум температуры воздуха на высоте 2 м над землей.
Tmax - Максимальная температура - максимум температуры воздуха на высоте 2 м над землей.
R - Количество осадков - Количество выпавших осадков за период времени, мм. При наведении курсора мыши на число - период времени, за который выпало указанное количество осадков.
R24 - Количество осадков - Количество выпавших осадков за 24 часа, мм.
S - Снежный покров - Высота снежного покрова, см. При наведении курсора мыши на число - состояние снежного покрова и степень покрытия местности в баллах.